Year,Month,Day,Hour,Minute,Value (Times are PST for temperature in C)
2015,10,04,00,00,10.00
2015,10,04,00,01,10.00
2015,10,04,00,02,9.90
2015,10,04,00,03,9.90
2015,10,04,00,04,9.90
2015,10,04,00,05,9.90
2015,10,04,00,06,9.80
2015,10,04,00,07,9.80
2015,10,04,00,08,9.80
2015,10,04,00,09,9.80
2015,10,04,00,10,9.70
2015,10,04,00,11,9.70
2015,10,04,00,12,9.70
2015,10,04,00,13,9.60
2015,10,04,00,14,9.60
2015,10,04,00,15,9.60
2015,10,04,00,16,9.60
2015,10,04,00,17,9.60
2015,10,04,00,18,9.60
2015,10,04,00,19,9.60
2015,10,04,00,20,9.50
2015,10,04,00,21,9.50
2015,10,04,00,22,9.50
2015,10,04,00,23,9.40
2015,10,04,00,24,9.40
2015,10,04,00,25,9.40
2015,10,04,00,26,9.40
2015,10,04,00,27,9.40
2015,10,04,00,28,9.40
2015,10,04,00,29,9.40
2015,10,04,00,30,9.40
2015,10,04,00,31,9.40
2015,10,04,00,32,9.40
2015,10,04,00,33,9.40
2015,10,04,00,34,9.40
2015,10,04,00,35,9.40
2015,10,04,00,36,9.40
2015,10,04,00,37,9.40
2015,10,04,00,38,9.40
2015,10,04,00,39,9.40
2015,10,04,00,40,9.40
2015,10,04,00,41,9.30
2015,10,04,00,42,9.30
2015,10,04,00,43,9.30
2015,10,04,00,44,9.30
2015,10,04,00,45,9.30
2015,10,04,00,46,9.30
2015,10,04,00,47,9.30
2015,10,04,00,48,9.40
2015,10,04,00,49,9.40
2015,10,04,00,50,9.40
2015,10,04,00,51,9.40
2015,10,04,00,52,9.40
2015,10,04,00,53,9.40
2015,10,04,00,54,9.40
2015,10,04,00,55,9.40
2015,10,04,00,56,9.40
2015,10,04,00,57,9.40
2015,10,04,00,58,9.40
2015,10,04,00,59,9.50
2015,10,04,01,00,9.50
2015,10,04,01,01,9.50
2015,10,04,01,02,9.60
2015,10,04,01,03,9.60
2015,10,04,01,04,9.60
2015,10,04,01,05,9.60
2015,10,04,01,06,9.60
2015,10,04,01,07,9.60
2015,10,04,01,08,9.50
2015,10,04,01,09,9.50
2015,10,04,01,10,9.50
2015,10,04,01,11,9.50
2015,10,04,01,12,9.40
2015,10,04,01,13,9.40
2015,10,04,01,14,9.40
2015,10,04,01,15,9.40
2015,10,04,01,16,9.40
2015,10,04,01,17,9.30
2015,10,04,01,18,9.30
2015,10,04,01,19,9.30
2015,10,04,01,20,9.30
2015,10,04,01,21,9.30
2015,10,04,01,22,9.30
2015,10,04,01,23,9.30
2015,10,04,01,24,9.30
2015,10,04,01,25,9.20
2015,10,04,01,26,9.20
2015,10,04,01,27,9.20
2015,10,04,01,28,9.20
2015,10,04,01,29,9.20
2015,10,04,01,30,9.20
2015,10,04,01,31,9.20
2015,10,04,01,32,9.10
2015,10,04,01,33,9.10
2015,10,04,01,34,9.10
2015,10,04,01,35,9.10
2015,10,04,01,36,9.10
2015,10,04,01,37,9.10
2015,10,04,01,38,9.10
2015,10,04,01,39,9.10
2015,10,04,01,40,9.00
2015,10,04,01,41,9.10
2015,10,04,01,42,9.00
2015,10,04,01,43,9.10
2015,10,04,01,44,9.10
2015,10,04,01,45,9.10
2015,10,04,01,46,9.10
2015,10,04,01,47,9.10
2015,10,04,01,48,9.10
2015,10,04,01,49,9.10
2015,10,04,01,50,9.10
2015,10,04,01,51,9.10
2015,10,04,01,52,9.10
2015,10,04,01,53,9.20
2015,10,04,01,54,9.20
2015,10,04,01,55,9.20
2015,10,04,01,56,9.20
2015,10,04,01,57,9.20
2015,10,04,01,58,9.20
2015,10,04,01,59,9.20
2015,10,04,02,00,9.30
2015,10,04,02,01,9.30
2015,10,04,02,02,9.40
2015,10,04,02,03,9.40
2015,10,04,02,04,9.50
2015,10,04,02,05,9.50
2015,10,04,02,06,9.60
2015,10,04,02,07,9.60
2015,10,04,02,08,9.60
2015,10,04,02,09,9.60
2015,10,04,02,10,9.50
2015,10,04,02,11,9.50
2015,10,04,02,12,9.50
2015,10,04,02,13,9.50
2015,10,04,02,14,9.40
2015,10,04,02,15,9.40
2015,10,04,02,16,9.40
2015,10,04,02,17,9.40
2015,10,04,02,18,9.50
2015,10,04,02,19,9.50
2015,10,04,02,20,9.60
2015,10,04,02,21,9.60
2015,10,04,02,22,9.70
2015,10,04,02,23,9.90
2015,10,04,02,24,10.00
2015,10,04,02,25,10.20
2015,10,04,02,26,10.30
2015,10,04,02,27,10.40
2015,10,04,02,28,10.50
2015,10,04,02,29,10.60
2015,10,04,02,30,10.70
2015,10,04,02,31,10.70
2015,10,04,02,32,10.80
2015,10,04,02,33,10.90
2015,10,04,02,34,10.90
2015,10,04,02,35,11.00
2015,10,04,02,36,11.10
2015,10,04,02,37,11.10
2015,10,04,02,38,11.20
2015,10,04,02,39,11.20
2015,10,04,02,40,11.20
2015,10,04,02,41,11.20
2015,10,04,02,42,11.20
2015,10,04,02,43,11.20
2015,10,04,02,44,11.30
2015,10,04,02,45,11.30
2015,10,04,02,46,11.30
2015,10,04,02,47,11.30
2015,10,04,02,48,11.40
2015,10,04,02,49,11.40
2015,10,04,02,50,11.50
2015,10,04,02,51,11.60
2015,10,04,02,52,11.60
2015,10,04,02,53,11.70
2015,10,04,02,54,11.70
2015,10,04,02,55,11.80
2015,10,04,02,56,11.80
2015,10,04,02,57,11.80
2015,10,04,02,58,11.80
2015,10,04,02,59,11.80
2015,10,04,03,00,11.80
2015,10,04,03,01,11.90
2015,10,04,03,02,11.90
2015,10,04,03,03,11.90
2015,10,04,03,04,11.90
2015,10,04,03,05,11.90
2015,10,04,03,06,11.90
2015,10,04,03,07,12.00
2015,10,04,03,08,12.00
2015,10,04,03,09,12.00
2015,10,04,03,10,12.10
2015,10,04,03,11,12.10
2015,10,04,03,12,12.10
2015,10,04,03,13,12.10
2015,10,04,03,14,12.20
2015,10,04,03,15,12.20
2015,10,04,03,16,12.20
2015,10,04,03,17,12.20
2015,10,04,03,18,12.20
2015,10,04,03,19,12.20
2015,10,04,03,20,12.20
2015,10,04,03,21,12.30
2015,10,04,03,22,12.30
2015,10,04,03,23,12.30
2015,10,04,03,24,12.40
2015,10,04,03,25,12.40
2015,10,04,03,26,12.50
2015,10,04,03,27,12.50
2015,10,04,03,28,12.50
2015,10,04,03,29,12.60
2015,10,04,03,30,12.60
2015,10,04,03,31,12.70
2015,10,04,03,32,12.70
2015,10,04,03,33,12.80
2015,10,04,03,34,12.80
2015,10,04,03,35,12.80
2015,10,04,03,36,12.80
2015,10,04,03,37,12.80
2015,10,04,03,38,12.90
2015,10,04,03,39,12.90
2015,10,04,03,40,12.90
2015,10,04,03,41,13.00
2015,10,04,03,42,13.00
2015,10,04,03,43,13.10
2015,10,04,03,44,13.10
2015,10,04,03,45,13.10
2015,10,04,03,46,13.20
2015,10,04,03,47,13.20
2015,10,04,03,48,13.30
2015,10,04,03,49,13.30
2015,10,04,03,50,13.30
2015,10,04,03,51,13.30
2015,10,04,03,52,13.30
2015,10,04,03,53,13.30
2015,10,04,03,54,13.30
2015,10,04,03,55,13.30
2015,10,04,03,56,13.20
2015,10,04,03,57,13.20
2015,10,04,03,58,13.20
2015,10,04,03,59,13.20
2015,10,04,04,00,13.20
2015,10,04,04,01,13.20
2015,10,04,04,02,13.30
2015,10,04,04,03,13.30
2015,10,04,04,04,13.30
2015,10,04,04,05,13.30
2015,10,04,04,06,13.30
2015,10,04,04,07,13.30
2015,10,04,04,08,13.40
2015,10,04,04,09,13.30
2015,10,04,04,10,13.30
2015,10,04,04,11,13.30
2015,10,04,04,12,13.30
2015,10,04,04,13,13.30
2015,10,04,04,14,13.30
2015,10,04,04,15,13.30
2015,10,04,04,16,13.30
2015,10,04,04,17,13.30
2015,10,04,04,18,13.30
2015,10,04,04,19,13.30
2015,10,04,04,20,13.30
2015,10,04,04,21,13.30
2015,10,04,04,22,13.30
2015,10,04,04,23,13.20
2015,10,04,04,24,13.20
2015,10,04,04,25,13.20
2015,10,04,04,26,13.10
2015,10,04,04,27,13.10
2015,10,04,04,28,13.10
2015,10,04,04,29,13.00
2015,10,04,04,30,13.00
2015,10,04,04,31,12.90
2015,10,04,04,32,12.90
2015,10,04,04,33,12.80
2015,10,04,04,34,12.70
2015,10,04,04,35,12.60
2015,10,04,04,36,12.50
2015,10,04,04,37,12.50
2015,10,04,04,38,12.40
2015,10,04,04,39,12.40
2015,10,04,04,40,12.30
2015,10,04,04,41,12.30
2015,10,04,04,42,12.30
2015,10,04,04,43,12.30
2015,10,04,04,44,12.30
2015,10,04,04,45,12.30
2015,10,04,04,46,12.30
2015,10,04,04,47,12.30
2015,10,04,04,48,12.30
2015,10,04,04,49,12.30
2015,10,04,04,50,12.30
2015,10,04,04,51,12.30
2015,10,04,04,52,12.20
2015,10,04,04,53,12.20
2015,10,04,04,54,12.20
2015,10,04,04,55,12.10
2015,10,04,04,56,12.10
2015,10,04,04,57,12.00
2015,10,04,04,58,11.90
2015,10,04,04,59,11.80
2015,10,04,05,00,11.80
2015,10,04,05,01,11.70
2015,10,04,05,02,11.60
2015,10,04,05,03,11.60
2015,10,04,05,04,11.50
2015,10,04,05,05,11.50
2015,10,04,05,06,11.50
2015,10,04,05,07,11.40
2015,10,04,05,08,11.40
2015,10,04,05,09,11.40
2015,10,04,05,10,11.40
2015,10,04,05,11,11.40
2015,10,04,05,12,11.40
2015,10,04,05,13,11.40
2015,10,04,05,14,11.40
2015,10,04,05,15,11.30
2015,10,04,05,16,11.30
2015,10,04,05,17,11.20
2015,10,04,05,18,11.20
2015,10,04,05,19,11.10
2015,10,04,05,20,11.00
2015,10,04,05,21,11.00
2015,10,04,05,22,10.90
2015,10,04,05,23,10.90
2015,10,04,05,24,10.80
2015,10,04,05,25,10.80
2015,10,04,05,26,10.70
2015,10,04,05,27,10.70
2015,10,04,05,28,10.70
2015,10,04,05,29,10.60
2015,10,04,05,30,10.60
2015,10,04,05,31,10.60
2015,10,04,05,32,10.60
2015,10,04,05,33,10.50
2015,10,04,05,34,10.50
2015,10,04,05,35,10.50
2015,10,04,05,36,10.40
2015,10,04,05,37,10.40
2015,10,04,05,38,10.40
2015,10,04,05,39,10.30
2015,10,04,05,40,10.30
2015,10,04,05,41,10.30
2015,10,04,05,42,10.30
2015,10,04,05,43,10.30
2015,10,04,05,44,10.30
2015,10,04,05,45,10.30
2015,10,04,05,46,10.30
2015,10,04,05,47,10.30
2015,10,04,05,48,10.30
2015,10,04,05,49,10.30
2015,10,04,05,50,10.40
2015,10,04,05,51,10.40
2015,10,04,05,52,10.40
2015,10,04,05,53,10.40
2015,10,04,05,54,10.50
2015,10,04,05,55,10.50
2015,10,04,05,56,10.50
2015,10,04,05,57,10.40
2015,10,04,05,58,10.40
2015,10,04,05,59,10.40
2015,10,04,06,00,10.30
2015,10,04,06,01,10.30
2015,10,04,06,02,10.20
2015,10,04,06,03,10.20
2015,10,04,06,04,10.20
2015,10,04,06,05,10.10
2015,10,04,06,06,10.00
2015,10,04,06,07,10.00
2015,10,04,06,08,9.90
2015,10,04,06,09,9.90
2015,10,04,06,10,9.80
2015,10,04,06,11,9.70
2015,10,04,06,12,9.70
2015,10,04,06,13,9.60
2015,10,04,06,14,9.60
2015,10,04,06,15,9.50
2015,10,04,06,16,9.40
2015,10,04,06,17,9.40
2015,10,04,06,18,9.40
2015,10,04,06,19,9.30
2015,10,04,06,20,9.30
2015,10,04,06,21,9.20
2015,10,04,06,22,9.20
2015,10,04,06,23,9.20
2015,10,04,06,24,9.10
2015,10,04,06,25,9.10
2015,10,04,06,26,9.10
2015,10,04,06,27,9.10
2015,10,04,06,28,9.10
2015,10,04,06,29,9.10
2015,10,04,06,30,9.10
2015,10,04,06,31,9.00
2015,10,04,06,32,9.00
2015,10,04,06,33,9.00
2015,10,04,06,34,8.90
2015,10,04,06,35,8.90
2015,10,04,06,36,8.90
2015,10,04,06,37,8.90
2015,10,04,06,38,8.90
2015,10,04,06,39,8.90
2015,10,04,06,40,8.90
2015,10,04,06,41,8.80
2015,10,04,06,42,8.80
2015,10,04,06,43,8.80
2015,10,04,06,44,8.80
2015,10,04,06,45,8.80
2015,10,04,06,46,8.70
2015,10,04,06,47,8.70
2015,10,04,06,48,8.70
2015,10,04,06,49,8.60
2015,10,04,06,50,8.60
2015,10,04,06,51,8.60
2015,10,04,06,52,8.50
2015,10,04,06,53,8.50
2015,10,04,06,54,8.50
2015,10,04,06,55,8.50
2015,10,04,06,56,8.40
2015,10,04,06,57,8.40
2015,10,04,06,58,8.40
2015,10,04,06,59,8.40
2015,10,04,07,00,8.40
2015,10,04,07,01,8.40
2015,10,04,07,02,8.40
2015,10,04,07,03,8.50
2015,10,04,07,04,8.50
2015,10,04,07,05,8.60
2015,10,04,07,06,8.60
2015,10,04,07,07,8.70
2015,10,04,07,08,8.80
2015,10,04,07,09,8.90
2015,10,04,07,10,9.00
2015,10,04,07,11,9.10
2015,10,04,07,12,9.30
2015,10,04,07,13,9.40
2015,10,04,07,14,9.50
2015,10,04,07,15,9.60
2015,10,04,07,16,9.70
2015,10,04,07,17,9.70
2015,10,04,07,18,9.80
2015,10,04,07,19,9.80
2015,10,04,07,20,9.90
2015,10,04,07,21,9.90
2015,10,04,07,22,9.90
2015,10,04,07,23,9.90
2015,10,04,07,24,9.80
2015,10,04,07,25,9.80
2015,10,04,07,26,9.80
2015,10,04,07,27,9.80
2015,10,04,07,28,9.70
2015,10,04,07,29,9.70
2015,10,04,07,30,9.70
2015,10,04,07,31,9.60
2015,10,04,07,32,9.60
2015,10,04,07,33,9.50
2015,10,04,07,34,9.50
2015,10,04,07,35,9.40
2015,10,04,07,36,9.40
2015,10,04,07,37,9.30
2015,10,04,07,38,9.30
2015,10,04,07,39,9.30
2015,10,04,07,40,9.20
2015,10,04,07,41,9.20
2015,10,04,07,42,9.10
2015,10,04,07,43,9.10
2015,10,04,07,44,9.10
2015,10,04,07,45,9.10
2015,10,04,07,46,9.10
2015,10,04,07,47,9.10
2015,10,04,07,48,9.10
2015,10,04,07,49,9.10
2015,10,04,07,50,9.10
2015,10,04,07,51,9.20
2015,10,04,07,52,9.30
2015,10,04,07,53,9.40
2015,10,04,07,54,9.50
2015,10,04,07,55,9.60
2015,10,04,07,56,9.70
2015,10,04,07,57,9.80
2015,10,04,07,58,9.90
2015,10,04,07,59,10.00
2015,10,04,08,00,10.10
2015,10,04,08,01,10.20
2015,10,04,08,02,10.30
2015,10,04,08,03,10.30
2015,10,04,08,04,10.40
2015,10,04,08,05,10.50
2015,10,04,08,06,10.50
2015,10,04,08,07,10.60
2015,10,04,08,08,10.60
2015,10,04,08,09,10.70
2015,10,04,08,10,10.70
2015,10,04,08,11,10.70
2015,10,04,08,12,10.80
2015,10,04,08,13,10.80
2015,10,04,08,14,10.80
2015,10,04,08,15,10.80
2015,10,04,08,16,10.80
2015,10,04,08,17,10.70
2015,10,04,08,18,10.70
2015,10,04,08,19,10.70
2015,10,04,08,20,10.70
2015,10,04,08,21,10.60
2015,10,04,08,22,10.60
2015,10,04,08,23,10.50
2015,10,04,08,24,10.50
2015,10,04,08,25,10.40
2015,10,04,08,26,10.40
2015,10,04,08,27,10.30
2015,10,04,08,28,10.30
2015,10,04,08,29,10.30
2015,10,04,08,30,10.20
2015,10,04,08,31,10.20
2015,10,04,08,32,10.20
2015,10,04,08,33,10.20
2015,10,04,08,34,10.20
2015,10,04,08,35,10.20
2015,10,04,08,36,10.20
2015,10,04,08,37,10.20
2015,10,04,08,38,10.20
2015,10,04,08,39,10.20
2015,10,04,08,40,10.30
2015,10,04,08,41,10.30
2015,10,04,08,42,10.40
2015,10,04,08,43,10.40
2015,10,04,08,44,10.50
2015,10,04,08,45,10.60
2015,10,04,08,46,10.60
2015,10,04,08,47,10.70
2015,10,04,08,48,10.80
2015,10,04,08,49,10.80
2015,10,04,08,50,10.90
2015,10,04,08,51,11.00
2015,10,04,08,52,11.10
2015,10,04,08,53,11.20
2015,10,04,08,54,11.30
2015,10,04,08,55,11.30
2015,10,04,08,56,11.40
2015,10,04,08,57,11.50
2015,10,04,08,58,11.60
2015,10,04,08,59,11.70
2015,10,04,09,00,11.80
2015,10,04,09,01,11.90
2015,10,04,09,02,12.00
2015,10,04,09,03,12.00
2015,10,04,09,04,12.20
2015,10,04,09,05,12.20
2015,10,04,09,06,12.30
2015,10,04,09,07,12.40
2015,10,04,09,08,12.50
2015,10,04,09,09,12.50
2015,10,04,09,10,12.60
2015,10,04,09,11,12.70
2015,10,04,09,12,12.80
2015,10,04,09,13,12.80
2015,10,04,09,14,12.90
2015,10,04,09,15,13.00
2015,10,04,09,16,13.00
2015,10,04,09,17,13.10
2015,10,04,09,18,13.20
2015,10,04,09,19,13.30
2015,10,04,09,20,13.30
2015,10,04,09,21,13.40
2015,10,04,09,22,13.50
2015,10,04,09,23,13.60
2015,10,04,09,24,13.60
2015,10,04,09,25,13.70
2015,10,04,09,26,13.70
2015,10,04,09,27,13.80
2015,10,04,09,28,13.80
2015,10,04,09,29,13.90
2015,10,04,09,30,13.90
2015,10,04,09,31,14.00
2015,10,04,09,32,14.00
2015,10,04,09,33,14.10
2015,10,04,09,34,14.20
2015,10,04,09,35,14.20
2015,10,04,09,36,14.30
2015,10,04,09,37,14.40
2015,10,04,09,38,14.40
2015,10,04,09,39,14.50
2015,10,04,09,40,14.60
2015,10,04,09,41,14.60
2015,10,04,09,42,14.70
2015,10,04,09,43,14.70
2015,10,04,09,44,14.70
2015,10,04,09,45,14.80
2015,10,04,09,46,14.80
2015,10,04,09,47,14.90
2015,10,04,09,48,14.90
2015,10,04,09,49,14.90
2015,10,04,09,50,14.90
2015,10,04,09,51,15.00
2015,10,04,09,52,15.00
2015,10,04,09,53,15.00
2015,10,04,09,54,15.00
2015,10,04,09,55,15.00
2015,10,04,09,56,15.10
2015,10,04,09,57,15.10
2015,10,04,09,58,15.00
2015,10,04,09,59,15.00
2015,10,04,10,00,15.00
2015,10,04,10,01,15.00
2015,10,04,10,02,15.00
2015,10,04,10,03,15.00
2015,10,04,10,04,15.00
2015,10,04,10,05,15.00
2015,10,04,10,06,15.00
2015,10,04,10,07,15.00
2015,10,04,10,08,15.10
2015,10,04,10,09,15.10
2015,10,04,10,10,15.10
2015,10,04,10,11,15.20
2015,10,04,10,12,15.20
2015,10,04,10,13,15.20
2015,10,04,10,14,15.30
2015,10,04,10,15,15.30
2015,10,04,10,16,15.40
2015,10,04,10,17,15.40
2015,10,04,10,18,15.50
2015,10,04,10,19,15.50
2015,10,04,10,20,15.60
2015,10,04,10,21,15.60
2015,10,04,10,22,15.70
2015,10,04,10,23,15.70
2015,10,04,10,24,15.70
2015,10,04,10,25,15.80
2015,10,04,10,26,15.80
2015,10,04,10,27,15.90
2015,10,04,10,28,15.90
2015,10,04,10,29,16.00
2015,10,04,10,30,16.00
2015,10,04,10,31,16.10
2015,10,04,10,32,16.10
2015,10,04,10,33,16.10
2015,10,04,10,34,16.20
2015,10,04,10,35,16.20
2015,10,04,10,36,16.20
2015,10,04,10,37,16.20
2015,10,04,10,38,16.20
2015,10,04,10,39,16.20
2015,10,04,10,40,16.20
2015,10,04,10,41,16.30
2015,10,04,10,42,16.30
2015,10,04,10,43,16.30
2015,10,04,10,44,16.30
2015,10,04,10,45,16.40
2015,10,04,10,46,16.40
2015,10,04,10,47,16.40
2015,10,04,10,48,16.50
2015,10,04,10,49,16.50
2015,10,04,10,50,16.50
2015,10,04,10,51,16.60
2015,10,04,10,52,16.60
2015,10,04,10,53,16.60
2015,10,04,10,54,16.60
2015,10,04,10,55,16.70
2015,10,04,10,56,16.70
2015,10,04,10,57,16.70
2015,10,04,10,58,16.80
2015,10,04,10,59,16.80
2015,10,04,11,00,16.80
2015,10,04,11,01,16.90
2015,10,04,11,02,16.90
2015,10,04,11,03,16.90
2015,10,04,11,04,16.90
2015,10,04,11,05,16.90
2015,10,04,11,06,16.90
2015,10,04,11,07,16.90
2015,10,04,11,08,16.90
2015,10,04,11,09,16.90
2015,10,04,11,10,16.80
2015,10,04,11,11,16.80
2015,10,04,11,12,16.80
2015,10,04,11,13,16.80
2015,10,04,11,14,16.80
2015,10,04,11,15,16.80
2015,10,04,11,16,16.80
2015,10,04,11,17,16.80
2015,10,04,11,18,16.80
2015,10,04,11,19,16.80
2015,10,04,11,20,16.90
2015,10,04,11,21,16.90
2015,10,04,11,22,16.80
2015,10,04,11,23,16.80
2015,10,04,11,24,16.80
2015,10,04,11,25,16.80
2015,10,04,11,26,16.80
2015,10,04,11,27,16.80
2015,10,04,11,28,16.80
2015,10,04,11,29,16.80
2015,10,04,11,30,16.80
2015,10,04,11,31,16.80
2015,10,04,11,32,16.90
2015,10,04,11,33,16.90
2015,10,04,11,34,16.80
2015,10,04,11,35,16.80
2015,10,04,11,36,16.80
2015,10,04,11,37,16.80
2015,10,04,11,38,16.80
2015,10,04,11,39,16.80
2015,10,04,11,40,16.90
2015,10,04,11,41,16.90
2015,10,04,11,42,16.90
2015,10,04,11,43,16.90
2015,10,04,11,44,16.90
2015,10,04,11,45,16.90
2015,10,04,11,46,16.90
2015,10,04,11,47,16.90
2015,10,04,11,48,16.90
2015,10,04,11,49,16.90
2015,10,04,11,50,16.90
2015,10,04,11,51,16.90
2015,10,04,11,52,16.90
2015,10,04,11,53,17.00
2015,10,04,11,54,16.90
2015,10,04,11,55,16.90
2015,10,04,11,56,16.90
2015,10,04,11,57,16.90
2015,10,04,11,58,16.90
2015,10,04,11,59,16.90
2015,10,04,12,00,16.90
2015,10,04,12,01,16.90
2015,10,04,12,02,16.90
2015,10,04,12,03,16.90
2015,10,04,12,04,17.00
2015,10,04,12,05,17.00
2015,10,04,12,06,17.00
2015,10,04,12,07,17.10
2015,10,04,12,08,17.10
2015,10,04,12,09,17.10
2015,10,04,12,10,17.20
2015,10,04,12,11,17.20
2015,10,04,12,12,17.30
2015,10,04,12,13,17.30
2015,10,04,12,14,17.40
2015,10,04,12,15,17.40
2015,10,04,12,16,17.40
2015,10,04,12,17,17.40
2015,10,04,12,18,17.40
2015,10,04,12,19,17.40
2015,10,04,12,20,17.40
2015,10,04,12,21,17.40
2015,10,04,12,22,17.40
2015,10,04,12,23,17.40
2015,10,04,12,24,17.40
2015,10,04,12,25,17.40
2015,10,04,12,26,17.50
2015,10,04,12,27,17.50
2015,10,04,12,28,17.50
2015,10,04,12,29,17.50
2015,10,04,12,30,17.60
2015,10,04,12,31,17.60
2015,10,04,12,32,17.60
2015,10,04,12,33,17.70
2015,10,04,12,34,17.70
2015,10,04,12,35,17.70
2015,10,04,12,36,17.80
2015,10,04,12,37,17.70
2015,10,04,12,38,17.70
2015,10,04,12,39,17.70
2015,10,04,12,40,17.70
2015,10,04,12,41,17.70
2015,10,04,12,42,17.70
2015,10,04,12,43,17.70
2015,10,04,12,44,17.70
2015,10,04,12,45,17.80
2015,10,04,12,46,17.80
2015,10,04,12,47,17.80
2015,10,04,12,48,17.90
2015,10,04,12,49,17.90
2015,10,04,12,50,17.90
2015,10,04,12,51,17.90
2015,10,04,12,52,17.90
2015,10,04,12,53,18.00
2015,10,04,12,54,18.00
2015,10,04,12,55,18.10
2015,10,04,12,56,18.10
2015,10,04,12,57,18.10
2015,10,04,12,58,18.10
2015,10,04,12,59,18.10
2015,10,04,13,00,18.20
2015,10,04,13,01,18.20
2015,10,04,13,02,18.20
2015,10,04,13,03,18.30
2015,10,04,13,04,18.30
2015,10,04,13,05,18.30
2015,10,04,13,06,18.40
2015,10,04,13,07,18.40
2015,10,04,13,08,18.40
2015,10,04,13,09,18.40
2015,10,04,13,10,18.50
2015,10,04,13,11,18.50
2015,10,04,13,12,18.60
2015,10,04,13,13,18.60
2015,10,04,13,14,18.60
2015,10,04,13,15,18.60
2015,10,04,13,16,18.60
2015,10,04,13,17,18.60
2015,10,04,13,18,18.60
2015,10,04,13,19,18.60
2015,10,04,13,20,18.60
2015,10,04,13,21,18.60
2015,10,04,13,22,18.50
2015,10,04,13,23,18.50
2015,10,04,13,24,18.40
2015,10,04,13,25,18.40
2015,10,04,13,26,18.40
2015,10,04,13,27,18.30
2015,10,04,13,28,18.30
2015,10,04,13,29,18.30
2015,10,04,13,30,18.30
2015,10,04,13,31,18.30
2015,10,04,13,32,18.30
2015,10,04,13,33,18.30
2015,10,04,13,34,18.30
2015,10,04,13,35,18.30
2015,10,04,13,36,18.30
2015,10,04,13,37,18.30
2015,10,04,13,38,18.30
2015,10,04,13,39,18.30
2015,10,04,13,40,18.30
2015,10,04,13,41,18.30
2015,10,04,13,42,18.30
2015,10,04,13,43,18.30
2015,10,04,13,44,18.30
2015,10,04,13,45,18.30
2015,10,04,13,46,18.30
2015,10,04,13,47,18.30
2015,10,04,13,48,18.30
2015,10,04,13,49,18.30
2015,10,04,13,50,18.30
2015,10,04,13,51,18.30
2015,10,04,13,52,18.30
2015,10,04,13,53,18.30
2015,10,04,13,54,18.40
2015,10,04,13,55,18.40
2015,10,04,13,56,18.40
2015,10,04,13,57,18.40
2015,10,04,13,58,18.40
2015,10,04,13,59,18.40
2015,10,04,14,00,18.40
2015,10,04,14,01,18.40
2015,10,04,14,02,18.40
2015,10,04,14,03,18.40
2015,10,04,14,04,18.50
2015,10,04,14,05,18.50
2015,10,04,14,06,18.50
2015,10,04,14,07,18.50
2015,10,04,14,08,18.50
2015,10,04,14,09,18.60
2015,10,04,14,10,18.60
2015,10,04,14,11,18.70
2015,10,04,14,12,18.80
2015,10,04,14,13,18.90
2015,10,04,14,14,18.90
2015,10,04,14,15,18.90
2015,10,04,14,16,18.90
2015,10,04,14,17,18.80
2015,10,04,14,18,18.80
2015,10,04,14,19,18.80
2015,10,04,14,20,18.80
2015,10,04,14,21,18.80
2015,10,04,14,22,18.80
2015,10,04,14,23,18.80
2015,10,04,14,24,18.80
2015,10,04,14,25,18.80
2015,10,04,14,26,18.80
2015,10,04,14,27,18.70
2015,10,04,14,28,18.80
2015,10,04,14,29,18.80
2015,10,04,14,30,18.90
2015,10,04,14,31,18.90
2015,10,04,14,32,18.90
2015,10,04,14,33,19.00
2015,10,04,14,34,19.00
2015,10,04,14,35,19.00
2015,10,04,14,36,19.10
2015,10,04,14,37,19.10
2015,10,04,14,38,19.10
2015,10,04,14,39,19.20
2015,10,04,14,40,19.20
2015,10,04,14,41,19.20
2015,10,04,14,42,19.20
2015,10,04,14,43,19.20
2015,10,04,14,44,19.20
2015,10,04,14,45,19.20
2015,10,04,14,46,19.20
2015,10,04,14,47,19.20
2015,10,04,14,48,19.20
2015,10,04,14,49,19.20
2015,10,04,14,50,19.30
2015,10,04,14,51,19.30
2015,10,04,14,52,19.30
2015,10,04,14,53,19.30
2015,10,04,14,54,19.30
2015,10,04,14,55,19.30
2015,10,04,14,56,19.40
2015,10,04,14,57,19.50
2015,10,04,14,58,19.60
2015,10,04,14,59,19.60
2015,10,04,15,00,19.60
2015,10,04,15,01,19.60
2015,10,04,15,02,19.60
2015,10,04,15,03,19.60
2015,10,04,15,04,19.70
2015,10,04,15,05,19.70
2015,10,04,15,06,19.70
2015,10,04,15,07,19.70
2015,10,04,15,08,19.70
2015,10,04,15,09,19.70
2015,10,04,15,10,19.70
2015,10,04,15,11,19.70
2015,10,04,15,12,19.70
2015,10,04,15,13,19.70
2015,10,04,15,14,19.70
2015,10,04,15,15,19.70
2015,10,04,15,16,19.70
2015,10,04,15,17,19.60
2015,10,04,15,18,19.70
2015,10,04,15,19,19.70
2015,10,04,15,20,19.70
2015,10,04,15,21,19.70
2015,10,04,15,22,19.70
2015,10,04,15,23,19.70
2015,10,04,15,24,19.70
2015,10,04,15,25,19.70
2015,10,04,15,26,19.70
2015,10,04,15,27,19.70
2015,10,04,15,28,19.70
2015,10,04,15,29,19.70
2015,10,04,15,30,19.70
2015,10,04,15,31,19.60
2015,10,04,15,32,19.60
2015,10,04,15,33,19.60
2015,10,04,15,34,19.50
2015,10,04,15,35,19.50
2015,10,04,15,36,19.50
2015,10,04,15,37,19.60
2015,10,04,15,38,19.60
2015,10,04,15,39,19.70
2015,10,04,15,40,19.70
2015,10,04,15,41,19.80
2015,10,04,15,42,19.80
2015,10,04,15,43,19.80
2015,10,04,15,44,19.80
2015,10,04,15,45,19.80
2015,10,04,15,46,19.80
2015,10,04,15,47,19.80
2015,10,04,15,48,19.80
2015,10,04,15,49,19.80
2015,10,04,15,50,19.80
2015,10,04,15,51,19.80
2015,10,04,15,52,19.80
2015,10,04,15,53,19.80
2015,10,04,15,54,19.80
2015,10,04,15,55,19.80
2015,10,04,15,56,19.80
2015,10,04,15,57,19.80
2015,10,04,15,58,19.80
2015,10,04,15,59,19.80
2015,10,04,16,00,19.90
2015,10,04,16,01,19.90
2015,10,04,16,02,20.00
2015,10,04,16,03,20.10
2015,10,04,16,04,20.10
2015,10,04,16,05,20.20
2015,10,04,16,06,20.30
2015,10,04,16,07,20.30
2015,10,04,16,08,20.30
2015,10,04,16,09,20.30
2015,10,04,16,10,20.30
2015,10,04,16,11,20.40
2015,10,04,16,12,20.40
2015,10,04,16,13,20.40
2015,10,04,16,14,20.40
2015,10,04,16,15,20.40
2015,10,04,16,16,20.40
2015,10,04,16,17,20.40
2015,10,04,16,18,20.40
2015,10,04,16,19,20.40
2015,10,04,16,20,20.40
2015,10,04,16,21,20.40
2015,10,04,16,22,20.40
2015,10,04,16,23,20.30
2015,10,04,16,24,20.30
2015,10,04,16,25,20.30
2015,10,04,16,26,20.40
2015,10,04,16,27,20.40
2015,10,04,16,28,20.40
2015,10,04,16,29,20.40
2015,10,04,16,30,20.40
2015,10,04,16,31,20.40
2015,10,04,16,32,20.40
2015,10,04,16,33,20.40
2015,10,04,16,34,20.40
2015,10,04,16,35,20.40
2015,10,04,16,36,20.40
2015,10,04,16,37,20.40
2015,10,04,16,38,20.40
2015,10,04,16,39,20.40
2015,10,04,16,40,20.40
2015,10,04,16,41,20.40
2015,10,04,16,42,20.50
2015,10,04,16,43,20.50
2015,10,04,16,44,20.50
2015,10,04,16,45,20.50
2015,10,04,16,46,20.50
2015,10,04,16,47,20.50
2015,10,04,16,48,20.40
2015,10,04,16,49,20.30
2015,10,04,16,50,20.30
2015,10,04,16,51,20.30
2015,10,04,16,52,20.20
2015,10,04,16,53,20.20
2015,10,04,16,54,20.20
2015,10,04,16,55,20.30
2015,10,04,16,56,20.30
2015,10,04,16,57,20.30
2015,10,04,16,58,20.30
2015,10,04,16,59,20.40
2015,10,04,17,00,20.40
2015,10,04,17,01,20.40
2015,10,04,17,02,20.40
2015,10,04,17,03,20.40
2015,10,04,17,04,20.40
2015,10,04,17,05,20.40
2015,10,04,17,06,20.40
2015,10,04,17,07,20.50
2015,10,04,17,08,20.50
2015,10,04,17,09,20.50
2015,10,04,17,10,20.60
2015,10,04,17,11,20.60
2015,10,04,17,12,20.60
2015,10,04,17,13,20.70
2015,10,04,17,14,20.70
2015,10,04,17,15,20.70
2015,10,04,17,16,20.70
2015,10,04,17,17,20.70
2015,10,04,17,18,20.70
2015,10,04,17,19,20.70
2015,10,04,17,20,20.70
2015,10,04,17,21,20.70
2015,10,04,17,22,20.70
2015,10,04,17,23,20.70
2015,10,04,17,24,20.70
2015,10,04,17,25,20.70
2015,10,04,17,26,20.70
2015,10,04,17,27,20.60
2015,10,04,17,28,20.60
2015,10,04,17,29,20.60
2015,10,04,17,30,20.60